| time (UTC) | temp F | wind direction | speed MPH | gust MPH | rain 1hr in | rain 24hr in | rain mn in | humidity % | barometer mb |
| 20260901153019 | 65 | 337 | 2.0 | 4.0 | 0.00 | 0.00 | 0.00 | 52 | 1009.7 |
| 20260901152020 | 63 | 336 | 1.0 | 4.0 | 0.00 | 0.00 | 0.00 | 51 | 1009.7 |
| 20260901151040 | 62 | 336 | 2.0 | 4.0 | 0.00 | 0.00 | 0.00 | 52 | 1009.9 |
| 20260901150014 | 60 | 192 | 2.0 | 3.0 | 0.00 | 0.00 | 0.00 | 56 | 1010.0 |
| 20260901145007 | 59 | 192 | 1.0 | 3.0 | 0.00 | 0.00 | 0.00 | 57 | 1010.0 |
| 20260901143949 | 58 | 193 | 1.0 | 3.0 | 0.00 | 0.00 | 0.00 | 60 | 1010.2 |
| 20260901142916 | 57 | 193 | 1.0 | 3.0 | 0.00 | 0.00 | 0.00 | 61 | 1010.3 |
| 20260901140838 | 54 | 193 | 2.0 | 4.0 | 0.00 | 0.00 | 0.00 | 65 | 1010.2 |
| 20260901135857 | 53 | 193 | 1.0 | 4.0 | 0.00 | 0.00 | 0.00 | 66 | 1010.3 |
| 20260901134904 | 52 | 193 | 1.0 | 4.0 | 0.00 | 0.00 | 0.00 | 68 | 1010.4 |
| 20260901133842 | 51 | 193 | 0.0 | 3.0 | 0.00 | 0.00 | 0.00 | 70 | 1010.4 |
| 20260901132853 | 50 | 193 | 0.0 | 3.0 | 0.00 | 0.00 | 0.00 | 70 | 1010.4 |
| 20260901124514 | 49 | 193 | 0.0 | 0.0 | 0.00 | 0.00 | 0.00 | 73 | 1010.3 |
| 20260901123502 | 49 | 193 | 0.0 | 0.0 | 0.00 | 0.00 | 0.00 | 75 | 1010.3 |
| 20260901122501 | 49 | 193 | 0.0 | 0.0 | 0.00 | 0.00 | 0.00 | 75 | 1010.2 |
| 20260901121447 | 49 | 193 | 0.0 | 0.0 | 0.00 | 0.00 | 0.00 | 76 | 1010.2 |
| 20260901120509 | 49 | 193 | 0.0 | 0.0 | 0.00 | 0.00 | 0.00 | 75 | 1010.2 |
| 20260901115517 | 49 | 193 | 0.0 | 0.0 | 0.00 | 0.00 | 0.00 | 76 | 1010.2 |
| 20260901113315 | 49 | 193 | 0.0 | 0.0 | 0.00 | 0.00 | 0.00 | 77 | 1010.5 |
| 20260901112317 | 49 | 193 | 0.0 | 0.0 | 0.00 | 0.00 | 0.00 | 75 | 1010.5 |
| 20260901110229 | 50 | 193 | 0.0 | 0.0 | 0.00 | 0.00 | 0.00 | 74 | 1010.8 |
| 20260901105212 | 50 | 193 | 0.0 | 0.0 | 0.00 | 0.00 | 0.00 | 72 | 1010.9 |
| 20260901104205 | 51 | 193 | 0.0 | 0.0 | 0.00 | 0.00 | 0.00 | 71 | 1010.9 |
| 20260901103137 | 51 | 193 | 0.0 | 0.0 | 0.00 | 0.00 | 0.00 | 72 | 1011.1 |
| 20260901102135 | 51 | 193 | 0.0 | 0.0 | 0.00 | 0.00 | 0.00 | 70 | 1011.2 |
| 20260901101137 | 51 | 193 | 0.0 | 0.0 | 0.00 | 0.00 | 0.00 | 69 | 1011.2 |
| 20260901100154 | 52 | 193 | 0.0 | 2.0 | 0.00 | 0.00 | 0.00 | 69 | 1011.2 |
| 20260901095141 | 52 | 193 | 0.0 | 0.0 | 0.00 | 0.00 | 0.00 | 69 | 1011.3 |
| 20260901094132 | 52 | 193 | 0.0 | 0.0 | 0.00 | 0.00 | 0.00 | 69 | 1011.0 |
| 20260901092016 | 51 | 193 | 0.0 | 0.0 | 0.00 | 0.00 | 0.00 | 70 | 1011.2 |
| 20260901091012 | 51 | 193 | 0.0 | 0.0 | 0.00 | 0.00 | 0.00 | 72 | 1011.2 |
| 20260901085958 | 51 | 193 | 0.0 | 0.0 | 0.00 | 0.00 | 0.00 | 73 | 1011.3 |
| 20260901084948 | 51 | 193 | 0.0 | 0.0 | 0.00 | 0.00 | 0.00 | 73 | 1011.4 |
| 20260901082803 | 52 | 193 | 0.0 | 0.0 | 0.00 | 0.00 | 0.00 | 71 | 1011.5 |
| 20260901080616 | 53 | 193 | 0.0 | 0.0 | 0.00 | 0.00 | 0.00 | 68 | 1011.7 |
| 20260901072251 | 55 | 193 | 0.0 | 0.0 | 0.00 | 0.00 | 0.00 | 63 | 1012.3 |
| 20260901071259 | 56 | 193 | 0.0 | 0.0 | 0.00 | 0.00 | 0.00 | 62 | 1012.2 |
| 20260901070254 | 56 | 193 | 0.0 | 1.0 | 0.00 | 0.00 | 0.00 | 60 | 1012.3 |
| 20260901065239 | 57 | 193 | 0.0 | 0.0 | 0.00 | 0.00 | 0.00 | 59 | 1012.2 |
| 20260901063144 | 57 | 193 | 0.0 | 2.0 | 0.00 | 0.00 | 0.00 | 57 | 1012.3 |
| 20260901062133 | 57 | 193 | 0.0 | 2.0 | 0.00 | 0.00 | 0.00 | 57 | 1012.4 |
| 20260901061106 | 58 | 193 | 0.0 | 0.0 | 0.00 | 0.00 | 0.00 | 57 | 1012.5 |
| 20260901060121 | 58 | 193 | 0.0 | 0.0 | 0.00 | 0.00 | 0.00 | 58 | 1012.5 |
| 20260901055117 | 58 | 193 | 0.0 | 6.0 | 0.00 | 0.00 | 0.00 | 57 | 1012.6 |
| 20260901052914 | 57 | 193 | 0.0 | 4.0 | 0.00 | 0.00 | 0.00 | 58 | 1012.7 |
| 20260901051915 | 56 | 193 | 0.0 | 3.0 | 0.00 | 0.00 | 0.00 | 59 | 1012.6 |
| 20260901050857 | 56 | 193 | 0.0 | 0.0 | 0.00 | 0.00 | 0.00 | 59 | 1012.6 |
| 20260901045843 | 56 | 193 | 0.0 | 4.0 | 0.00 | 0.00 | 0.00 | 59 | 1012.7 |
| 20260901044816 | 56 | 193 | 0.0 | 0.0 | 0.00 | 0.00 | 0.00 | 60 | 1012.7 |
| 20260901043839 | 56 | 193 | 0.0 | 0.0 | 0.00 | 0.00 | 0.00 | 59 | 1012.7 |
| 20260901042901 | 56 | 193 | 0.0 | 0.0 | 0.00 | 0.00 | 0.00 | 61 | 1012.7 |
| 20260901040726 | 55 | 193 | 0.0 | 1.0 | 0.00 | 0.00 | 0.00 | 68 | 1012.7 |
| 20260901035739 | 56 | 193 | 0.0 | 0.0 | 0.00 | 0.00 | 0.00 | 66 | 1012.8 |
| 20260901034801 | 56 | 193 | 0.0 | 0.0 | 0.00 | 0.00 | 0.00 | 66 | 1012.7 |
| 20260901033808 | 57 | 355 | 0.0 | 0.0 | 0.00 | 0.00 | 0.00 | 65 | 1012.7 |
| 20260901032755 | 58 | 349 | 0.0 | 0.0 | 0.00 | 0.00 | 0.00 | 63 | 1012.6 |
| 20260901031819 | 59 | 348 | 0.0 | 0.0 | 0.00 | 0.00 | 0.00 | 61 | 1012.6 |
| 20260901030823 | 60 | 343 | 0.0 | 0.0 | 0.00 | 0.00 | 0.00 | 59 | 1012.5 |
| 20260901025832 | 61 | 343 | 0.0 | 0.0 | 0.00 | 0.00 | 0.00 | 57 | 1012.4 |
| 20260901024823 | 63 | 341 | 0.0 | 0.0 | 0.00 | 0.00 | 0.00 | 53 | 1012.2 |
| 20260901023811 | 64 | 340 | 0.0 | 0.0 | 0.00 | 0.00 | 0.00 | 48 | 1011.9 |
| 20260901022754 | 66 | 338 | 0.0 | 0.0 | 0.00 | 0.00 | 0.00 | 45 | 1011.7 |
| 20260901021737 | 66 | 338 | 0.0 | 0.0 | 0.00 | 0.00 | 0.00 | 42 | 1011.5 |
| 20260901020719 | 67 | 338 | 0.0 | 0.0 | 0.00 | 0.00 | 0.00 | 45 | 1011.5 |
| 20260901015652 | 68 | 337 | 0.0 | 0.0 | 0.00 | 0.00 | 0.00 | 44 | 1011.5 |
| 20260901014640 | 68 | 337 | 0.0 | 0.0 | 0.00 | 0.00 | 0.00 | 41 | 1011.4 |
| 20260901013639 | 69 | 336 | 0.0 | 0.0 | 0.00 | 0.00 | 0.00 | 40 | 1011.2 |
| 20260901011504 | 71 | 336 | 0.0 | 0.0 | 0.00 | 0.00 | 0.00 | 36 | 1011.2 |
| 20260901010437 | 72 | 337 | 0.0 | 0.0 | 0.00 | 0.00 | 0.00 | 37 | 1011.2 |
| 20260901005428 | 73 | 337 | 0.0 | 0.0 | 0.00 | 0.00 | 0.00 | 36 | 1011.3 |
| 20260901004418 | 73 | 337 | 0.0 | 0.0 | 0.00 | 0.00 | 0.00 | 37 | 1011.3 |
| 20260901003427 | 73 | 337 | 0.0 | 1.0 | 0.00 | 0.00 | 0.00 | 36 | 1011.3 |
| 20260901001248 | 72 | 337 | 0.0 | 0.0 | 0.00 | 0.00 | 0.00 | 40 | 1011.4 |
| 20260901000251 | 72 | 337 | 0.0 | 0.0 | 0.00 | 0.00 | 0.00 | 38 | 1011.5 |
| 20260831235225 | 72 | 338 | 0.0 | 3.0 | 0.00 | 0.00 | 0.00 | 34 | 1011.6 |
| 20260831234241 | 73 | 344 | 0.0 | 2.0 | 0.00 | 0.00 | 0.00 | 38 | 1011.5 |
| 20260831233242 | 73 | 192 | 0.0 | 4.0 | 0.00 | 0.00 | 0.00 | 35 | 1011.7 |
| 20260831232225 | 74 | 193 | 0.0 | 4.0 | 0.00 | 0.00 | 0.00 | 35 | 1011.8 |
| 20260831231237 | 74 | 193 | 0.0 | 4.0 | 0.00 | 0.00 | 0.00 | 35 | 1011.8 |
| 20260831230247 | 74 | 193 | 0.0 | 4.0 | 0.00 | 0.00 | 0.00 | 35 | 1011.9 |
| 20260831222942 | 74 | 193 | 0.0 | 2.0 | 0.00 | 0.00 | 0.00 | 37 | 1012.1 |
| 20260831220742 | 74 | 193 | 0.0 | 3.0 | 0.00 | 0.00 | 0.00 | 36 | 1012.1 |
| 20260831215715 | 74 | 192 | 1.0 | 7.0 | 0.00 | 0.00 | 0.00 | 36 | 1012.2 |
| 20260831214732 | 74 | 192 | 1.0 | 7.0 | 0.00 | 0.00 | 0.00 | 35 | 1012.3 |
| 20260831213713 | 74 | 193 | 0.0 | 3.0 | 0.00 | 0.00 | 0.00 | 36 | 1012.4 |
| 20260831212735 | 74 | 193 | 0.0 | 4.0 | 0.00 | 0.00 | 0.00 | 33 | 1012.3 |
| 20260831211703 | 74 | 193 | 1.0 | 4.0 | 0.00 | 0.00 | 0.00 | 38 | 1012.6 |
| 20260831205605 | 73 | 352 | 0.0 | 5.0 | 0.00 | 0.00 | 0.00 | 34 | 1012.8 |
| 20260831204542 | 73 | 340 | 1.0 | 5.0 | 0.00 | 0.00 | 0.00 | 35 | 1012.9 |
| 20260831203545 | 73 | 323 | 0.0 | 5.0 | 0.00 | 0.00 | 0.00 | 35 | 1013.0 |
| 20260831202528 | 72 | 337 | 1.0 | 0.0 | 0.00 | 0.00 | 0.00 | 36 | 1013.2 |
| 20260831201533 | 72 | 338 | 0.0 | 3.0 | 0.00 | 0.00 | 0.00 | 40 | 1013.3 |
| 20260831200519 | 72 | 338 | 1.0 | 6.0 | 0.00 | 0.00 | 0.00 | 38 | 1013.4 |
| 20260831195516 | 72 | 337 | 1.0 | 6.0 | 0.00 | 0.00 | 0.00 | 39 | 1013.5 |
| 20260831194514 | 72 | 337 | 1.0 | 4.0 | 0.00 | 0.00 | 0.00 | 35 | 1013.6 |
| 20260831193458 | 71 | 343 | 1.0 | 4.0 | 0.00 | 0.00 | 0.00 | 38 | 1013.9 |
| 20260831192446 | 70 | 337 | 1.0 | 7.0 | 0.00 | 0.00 | 0.00 | 37 | 1014.1 |
| 20260831191435 | 69 | 338 | 1.0 | 7.0 | 0.00 | 0.00 | 0.00 | 38 | 1014.3 |
| 20260831185359 | 70 | 337 | 1.0 | 7.0 | 0.00 | 0.00 | 0.00 | 38 | 1014.5 |
| 20260831184411 | 70 | 337 | 1.0 | 7.0 | 0.00 | 0.00 | 0.00 | 40 | 1014.5 |
| 20260831183425 | 69 | 193 | 1.0 | 6.0 | 0.00 | 0.00 | 0.00 | 39 | 1014.6 |
| 20260831182429 | 69 | 193 | 1.0 | 6.0 | 0.00 | 0.00 | 0.00 | 38 | 1014.6 |
| 20260831181444 | 69 | 193 | 1.0 | 5.0 | 0.00 | 0.00 | 0.00 | 40 | 1014.7 |
| 20260831180420 | 68 | 193 | 1.0 | 7.0 | 0.00 | 0.00 | 0.00 | 40 | 1014.8 |
| 20260831175420 | 67 | 194 | 1.0 | 7.0 | 0.00 | 0.00 | 0.00 | 41 | 1014.8 |
| 20260831174409 | 67 | 347 | 1.0 | 6.0 | 0.00 | 0.00 | 0.00 | 41 | 1014.9 |
| 20260831173356 | 67 | 338 | 1.0 | 8.0 | 0.00 | 0.00 | 0.00 | 41 | 1015.0 |
| 20260831171225 | 65 | 339 | 1.0 | 9.0 | 0.00 | 0.00 | 0.00 | 43 | 1015.2 |
| 20260831165039 | 63 | 337 | 1.0 | 9.0 | 0.00 | 0.00 | 0.00 | 46 | 1015.3 |
| 20260831164021 | 63 | 341 | 2.0 | 9.0 | 0.00 | 0.00 | 0.00 | 43 | 1015.3 |
| 20260831163025 | 63 | 338 | 1.0 | 10.0 | 0.00 | 0.00 | 0.00 | 45 | 1015.2 |
| 20260831160906 | 61 | 181 | 1.0 | 6.0 | 0.00 | 0.00 | 0.00 | 49 | 1015.3 |
| 20260831153636 | 58 | 188 | 0.0 | 4.0 | 0.00 | 0.00 | 0.00 | 51 | 1015.2 |